Location: *
(53.9002°N, 27.5624°E)
Time: 08:14:53
(UTC+00:00)

CZ-4B R/B - Pass Details

Date: 12 November 2019
Orbit: 809 x 881 km, 99.1° (Epoch: 14 December)

Event Time Altitude Azimuth Distance (km) Brightness Sun altitude
Rises 14:45:54 0° 170° (S) 3,340 6.5 -4.7°
Reaches altitude 10° 14:48:15 10° 173° (S) 2,405 5.8 -5.0°
Maximum altitude 14:53:32 67° 256° (WSW) 881 3.7 -5.7°
Drops below altitude 10° 14:58:50 10° 339° (NNW) 2,408 5.6 -6.5°
Sets 15:01:12 0° 343° (NNW) 3,345 6.3 -6.8°
